Time,TemperatureF,DewpointF,PressureIn,WindDirection,WindDirectionDegrees,WindSpeedMPH,WindSpeedGustMPH,Humidity,HourlyPrecipIn,Conditions,Clouds,dailyrainin,SoftwareType,DateUTC
2013-05-13 00:01:00,56.8,34.0,29.75,North,-999,-999.0,-999.0,42,-99.99,,,-99.99,meteohub,2013-05-13 04:01:00,
2013-05-13 00:02:00,56.8,34.0,29.75,North,-999,-999.0,-999.0,42,-99.99,,,-99.99,meteohub,2013-05-13 04:02:00,
2013-05-13 00:04:00,56.8,34.7,29.75,North,-999,-999.0,-999.0,43,-99.99,,,-99.99,meteohub,2013-05-13 04:04:00,
2013-05-13 00:09:00,56.7,33.8,29.75,North,-999,-999.0,-999.0,42,-99.99,,,-99.99,meteohub,2013-05-13 04:09:00,
2013-05-13 00:14:00,56.5,33.6,29.75,North,-999,-999.0,-999.0,42,-99.99,,,-99.99,meteohub,2013-05-13 04:14:00,
2013-05-13 00:19:00,56.3,33.6,29.75,North,-999,-999.0,-999.0,42,-99.99,,,-99.99,meteohub,2013-05-13 04:19:00,
2013-05-13 00:24:00,56.1,32.7,29.75,North,-999,-999.0,-999.0,41,-99.99,,,-99.99,meteohub,2013-05-13 04:24:00,
2013-05-13 00:29:00,55.9,33.3,29.75,North,-999,-999.0,-999.0,42,-99.99,,,-99.99,meteohub,2013-05-13 04:29:00,
2013-05-13 00:35:00,55.8,33.1,29.75,North,-999,-999.0,-999.0,42,-99.99,,,-99.99,meteohub,2013-05-13 04:35:00,
2013-05-13 00:40:00,55.6,32.9,29.75,North,-999,-999.0,-999.0,42,-99.99,,,-99.99,meteohub,2013-05-13 04:40:00,
2013-05-13 00:45:00,55.2,33.1,29.75,North,-999,-999.0,-999.0,43,-99.99,,,-99.99,meteohub,2013-05-13 04:45:00,
2013-05-13 00:50:00,55.2,33.1,29.75,North,-999,-999.0,-999.0,43,-99.99,,,-99.99,meteohub,2013-05-13 04:50:00,
2013-05-13 00:55:00,54.9,32.9,29.75,North,-999,-999.0,-999.0,43,-99.99,,,-99.99,meteohub,2013-05-13 04:55:00,
2013-05-13 01:00:00,54.7,33.3,29.75,North,-999,-999.0,-999.0,44,-99.99,,,-99.99,meteohub,2013-05-13 05:00:00,
2013-05-13 01:05:00,54.3,32.9,29.75,North,-999,-999.0,-999.0,44,-99.99,,,-99.99,meteohub,2013-05-13 05:05:00,
2013-05-13 01:10:00,54.3,33.4,29.75,North,-999,-999.0,-999.0,45,-99.99,,,-99.99,meteohub,2013-05-13 05:10:00,
2013-05-13 01:15:00,54.3,34.0,29.75,North,-999,-999.0,-999.0,46,-99.99,,,-99.99,meteohub,2013-05-13 05:15:00,
2013-05-13 01:20:00,54.1,33.8,29.75,North,-999,-999.0,-999.0,46,-99.99,,,-99.99,meteohub,2013-05-13 05:20:00,
2013-05-13 01:26:00,54.0,33.6,29.75,North,-999,-999.0,-999.0,46,-99.99,,,-99.99,meteohub,2013-05-13 05:26:00,
2013-05-13 01:31:00,54.0,33.6,29.75,North,-999,-999.0,-999.0,46,-99.99,,,-99.99,meteohub,2013-05-13 05:31:00,
2013-05-13 01:36:00,54.0,33.6,29.75,North,-999,-999.0,-999.0,46,-99.99,,,-99.99,meteohub,2013-05-13 05:36:00,
2013-05-13 01:41:00,53.8,34.0,29.75,North,-999,-999.0,-999.0,47,-99.99,,,-99.99,meteohub,2013-05-13 05:41:00,
2013-05-13 01:46:00,53.8,34.0,29.75,North,-999,-999.0,-999.0,47,-99.99,,,-99.99,meteohub,2013-05-13 05:46:00,
2013-05-13 01:51:00,53.8,33.4,29.75,North,-999,-999.0,-999.0,46,-99.99,,,-99.99,meteohub,2013-05-13 05:51:00,
2013-05-13 01:56:00,53.6,33.4,29.75,North,-999,-999.0,-999.0,46,-99.99,,,-99.99,meteohub,2013-05-13 05:56:00,
2013-05-13 02:01:00,53.6,33.4,29.75,North,-999,-999.0,-999.0,46,-99.99,,,-99.99,meteohub,2013-05-13 06:01:00,
2013-05-13 02:06:00,53.2,33.6,29.75,North,-999,-999.0,-999.0,47,-99.99,,,-99.99,meteohub,2013-05-13 06:06:00,
2013-05-13 02:11:00,53.2,33.6,29.75,North,-999,-999.0,-999.0,47,-99.99,,,-99.99,meteohub,2013-05-13 06:11:00,
2013-05-13 02:17:00,53.2,33.6,29.75,North,-999,-999.0,-999.0,47,-99.99,,,-99.99,meteohub,2013-05-13 06:17:00,
2013-05-13 02:22:00,53.1,34.0,29.75,North,-999,-999.0,-999.0,48,-99.99,,,-99.99,meteohub,2013-05-13 06:22:00,
2013-05-13 02:27:00,53.1,34.0,29.75,North,-999,-999.0,-999.0,48,-99.99,,,-99.99,meteohub,2013-05-13 06:27:00,
2013-05-13 02:32:00,53.1,34.0,29.75,North,-999,-999.0,-999.0,48,-99.99,,,-99.99,meteohub,2013-05-13 06:32:00,
2013-05-13 02:37:00,53.1,34.0,29.75,North,-999,-999.0,-999.0,48,-99.99,,,-99.99,meteohub,2013-05-13 06:37:00,
2013-05-13 02:42:00,52.7,33.6,29.75,North,-999,-999.0,-999.0,48,-99.99,,,-99.99,meteohub,2013-05-13 06:42:00,
2013-05-13 02:47:00,52.7,33.6,29.75,North,-999,-999.0,-999.0,48,-99.99,,,-99.99,meteohub,2013-05-13 06:47:00,
2013-05-13 02:52:00,52.7,34.2,29.75,North,-999,-999.0,-999.0,49,-99.99,,,-99.99,meteohub,2013-05-13 06:52:00,
2013-05-13 02:57:00,52.5,33.4,29.75,North,-999,-999.0,-999.0,48,-99.99,,,-99.99,meteohub,2013-05-13 06:57:00,
2013-05-13 03:02:00,52.5,34.0,29.75,North,-999,-999.0,-999.0,49,-99.99,,,-99.99,meteohub,2013-05-13 07:02:00,
2013-05-13 03:07:00,52.3,33.8,29.75,North,-999,-999.0,-999.0,49,-99.99,,,-99.99,meteohub,2013-05-13 07:07:00,
2013-05-13 03:12:00,52.3,34.3,29.75,North,-999,-999.0,-999.0,50,-99.99,,,-99.99,meteohub,2013-05-13 07:12:00,
2013-05-13 03:17:00,52.3,33.8,29.75,North,-999,-999.0,-999.0,49,-99.99,,,-99.99,meteohub,2013-05-13 07:17:00,
2013-05-13 03:22:00,52.2,34.2,29.75,North,-999,-999.0,-999.0,50,-99.99,,,-99.99,meteohub,2013-05-13 07:22:00,
2013-05-13 03:27:00,52.0,34.0,29.75,North,-999,-999.0,-999.0,50,-99.99,,,-99.99,meteohub,2013-05-13 07:27:00,
2013-05-13 03:32:00,52.0,34.0,29.75,North,-999,-999.0,-999.0,50,-99.99,,,-99.99,meteohub,2013-05-13 07:32:00,
2013-05-13 03:37:00,51.6,34.2,29.75,North,-999,-999.0,-999.0,51,-99.99,,,-99.99,meteohub,2013-05-13 07:37:00,
2013-05-13 03:42:00,51.4,34.0,29.75,North,-999,-999.0,-999.0,51,-99.99,,,-99.99,meteohub,2013-05-13 07:42:00,
2013-05-13 03:47:00,51.4,34.0,29.75,North,-999,-999.0,-999.0,51,-99.99,,,-99.99,meteohub,2013-05-13 07:47:00,
2013-05-13 03:52:00,51.3,34.3,29.75,North,-999,-999.0,-999.0,52,-99.99,,,-99.99,meteohub,2013-05-13 07:52:00,
2013-05-13 03:57:00,51.1,34.2,29.75,North,-999,-999.0,-999.0,52,-99.99,,,-99.99,meteohub,2013-05-13 07:57:00,
2013-05-13 04:02:00,50.7,33.8,29.75,North,-999,-999.0,-999.0,52,-99.99,,,-99.99,meteohub,2013-05-13 08:02:00,
2013-05-13 04:07:00,50.5,34.2,29.78,North,-999,-999.0,-999.0,53,-99.99,,,-99.99,meteohub,2013-05-13 08:07:00,
2013-05-13 04:12:00,50.5,33.6,29.78,North,-999,-999.0,-999.0,52,-99.99,,,-99.99,meteohub,2013-05-13 08:12:00,
2013-05-13 04:17:00,50.2,33.8,29.78,North,-999,-999.0,-999.0,53,-99.99,,,-99.99,meteohub,2013-05-13 08:17:00,
2013-05-13 04:22:00,50.0,33.6,29.78,North,-999,-999.0,-999.0,53,-99.99,,,-99.99,meteohub,2013-05-13 08:22:00,
2013-05-13 04:27:00,49.8,33.8,29.78,North,-999,-999.0,-999.0,54,-99.99,,,-99.99,meteohub,2013-05-13 08:27:00,
2013-05-13 04:32:00,49.8,33.4,29.78,North,-999,-999.0,-999.0,53,-99.99,,,-99.99,meteohub,2013-05-13 08:32:00,
2013-05-13 04:37:00,49.5,33.6,29.78,North,-999,-999.0,-999.0,54,-99.99,,,-99.99,meteohub,2013-05-13 08:37:00,
2013-05-13 04:42:00,49.3,33.8,29.78,North,-999,-999.0,-999.0,55,-99.99,,,-99.99,meteohub,2013-05-13 08:42:00,
2013-05-13 04:47:00,49.3,33.8,29.78,North,-999,-999.0,-999.0,55,-99.99,,,-99.99,meteohub,2013-05-13 08:47:00,
2013-05-13 04:52:00,49.1,33.6,29.78,North,-999,-999.0,-999.0,55,-99.99,,,-99.99,meteohub,2013-05-13 08:52:00,
2013-05-13 04:57:00,49.1,33.6,29.78,North,-999,-999.0,-999.0,55,-99.99,,,-99.99,meteohub,2013-05-13 08:57:00,
2013-05-13 05:02:00,48.7,33.8,29.78,North,-999,-999.0,-999.0,56,-99.99,,,-99.99,meteohub,2013-05-13 09:02:00,
2013-05-13 05:07:00,48.7,34.2,29.78,North,-999,-999.0,-999.0,57,-99.99,,,-99.99,meteohub,2013-05-13 09:07:00,
2013-05-13 05:12:00,48.7,34.2,29.78,North,-999,-999.0,-999.0,57,-99.99,,,-99.99,meteohub,2013-05-13 09:12:00,
2013-05-13 05:17:00,48.6,34.5,29.78,North,-999,-999.0,-999.0,58,-99.99,,,-99.99,meteohub,2013-05-13 09:17:00,
2013-05-13 05:22:00,48.4,34.3,29.78,North,-999,-999.0,-999.0,58,-99.99,,,-99.99,meteohub,2013-05-13 09:22:00,
2013-05-13 05:27:00,48.2,34.5,29.78,North,-999,-999.0,-999.0,59,-99.99,,,-99.99,meteohub,2013-05-13 09:27:00,
2013-05-13 05:32:00,48.0,34.3,29.78,North,-999,-999.0,-999.0,59,-99.99,,,-99.99,meteohub,2013-05-13 09:32:00,
2013-05-13 05:37:00,47.7,34.5,29.78,North,-999,-999.0,-999.0,60,-99.99,,,-99.99,meteohub,2013-05-13 09:37:00,
2013-05-13 05:42:00,47.7,34.9,29.78,North,-999,-999.0,-999.0,61,-99.99,,,-99.99,meteohub,2013-05-13 09:42:00,
2013-05-13 05:47:00,47.5,35.1,29.78,North,-999,-999.0,-999.0,62,-99.99,,,-99.99,meteohub,2013-05-13 09:47:00,
2013-05-13 05:52:00,47.5,34.7,29.78,North,-999,-999.0,-999.0,61,-99.99,,,-99.99,meteohub,2013-05-13 09:52:00,
2013-05-13 05:57:00,47.3,34.9,29.78,North,-999,-999.0,-999.0,62,-99.99,,,-99.99,meteohub,2013-05-13 09:57:00,
2013-05-13 06:02:00,47.3,34.5,29.78,North,-999,-999.0,-999.0,61,-99.99,,,-99.99,meteohub,2013-05-13 10:02:00,
2013-05-13 06:07:00,47.1,34.3,29.78,North,-999,-999.0,-999.0,61,-99.99,,,-99.99,meteohub,2013-05-13 10:07:00,
2013-05-13 06:12:00,46.9,34.7,29.78,North,-999,-999.0,-999.0,62,-99.99,,,-99.99,meteohub,2013-05-13 10:12:00,
2013-05-13 06:17:00,46.8,34.9,29.78,North,-999,-999.0,-999.0,63,-99.99,,,-99.99,meteohub,2013-05-13 10:17:00,
2013-05-13 06:22:00,46.8,35.2,29.78,North,-999,-999.0,-999.0,64,-99.99,,,-99.99,meteohub,2013-05-13 10:22:00,
2013-05-13 06:27:00,46.8,35.6,29.78,North,-999,-999.0,-999.0,65,-99.99,,,-99.99,meteohub,2013-05-13 10:27:00,
2013-05-13 06:32:00,46.8,35.6,29.78,North,-999,-999.0,-999.0,65,-99.99,,,-99.99,meteohub,2013-05-13 10:32:00,
2013-05-13 06:37:00,46.8,36.3,29.81,North,-999,-999.0,-999.0,67,-99.99,,,-99.99,meteohub,2013-05-13 10:37:00,
2013-05-13 06:42:00,46.9,36.1,29.81,North,-999,-999.0,-999.0,66,-99.99,,,-99.99,meteohub,2013-05-13 10:42:00,
2013-05-13 06:47:00,46.9,36.1,29.81,North,-999,-999.0,-999.0,66,-99.99,,,-99.99,meteohub,2013-05-13 10:47:00,
2013-05-13 06:52:00,46.9,36.5,29.81,North,-999,-999.0,-999.0,67,-99.99,,,-99.99,meteohub,2013-05-13 10:52:00,
2013-05-13 06:57:00,47.1,37.0,29.81,North,-999,-999.0,-999.0,68,-99.99,,,-99.99,meteohub,2013-05-13 10:57:00,
2013-05-13 07:02:00,47.1,36.7,29.81,North,-999,-999.0,-999.0,67,-99.99,,,-99.99,meteohub,2013-05-13 11:02:00,
2013-05-13 07:07:00,47.1,36.7,29.81,North,-999,-999.0,-999.0,67,-99.99,,,-99.99,meteohub,2013-05-13 11:07:00,
2013-05-13 07:12:00,47.3,36.9,29.81,North,-999,-999.0,-999.0,67,-99.99,,,-99.99,meteohub,2013-05-13 11:12:00,
2013-05-13 07:17:00,47.3,36.9,29.81,North,-999,-999.0,-999.0,67,-99.99,,,-99.99,meteohub,2013-05-13 11:17:00,
2013-05-13 07:22:00,47.5,37.4,29.81,North,-999,-999.0,-999.0,68,-99.99,,,-99.99,meteohub,2013-05-13 11:22:00,
2013-05-13 07:27:00,47.8,37.8,29.81,North,-999,-999.0,-999.0,68,-99.99,,,-99.99,meteohub,2013-05-13 11:27:00,
2013-05-13 07:32:00,48.0,37.9,29.81,North,-999,-999.0,-999.0,68,-99.99,,,-99.99,meteohub,2013-05-13 11:32:00,
2013-05-13 07:37:00,48.2,37.8,29.81,North,-999,-999.0,-999.0,67,-99.99,,,-99.99,meteohub,2013-05-13 11:37:00,
2013-05-13 07:42:00,48.4,37.9,29.81,North,-999,-999.0,-999.0,67,-99.99,,,-99.99,meteohub,2013-05-13 11:42:00,
2013-05-13 07:47:00,48.6,38.1,29.81,North,-999,-999.0,-999.0,67,-99.99,,,-99.99,meteohub,2013-05-13 11:47:00,
2013-05-13 07:52:00,48.7,38.3,29.81,North,-999,-999.0,-999.0,67,-99.99,,,-99.99,meteohub,2013-05-13 11:52:00,
2013-05-13 07:57:00,49.1,38.7,29.81,North,-999,-999.0,-999.0,67,-99.99,,,-99.99,meteohub,2013-05-13 11:57:00,
2013-05-13 08:02:00,49.3,38.5,29.81,North,-999,-999.0,-999.0,66,-99.99,,,-99.99,meteohub,2013-05-13 12:02:00,
2013-05-13 08:07:00,49.6,38.8,29.81,North,-999,-999.0,-999.0,66,-99.99,,,-99.99,meteohub,2013-05-13 12:07:00,
2013-05-13 08:12:00,49.8,38.5,29.81,North,-999,-999.0,-999.0,65,-99.99,,,-99.99,meteohub,2013-05-13 12:12:00,
2013-05-13 08:17:00,50.0,38.3,29.81,North,-999,-999.0,-999.0,64,-99.99,,,-99.99,meteohub,2013-05-13 12:17:00,
2013-05-13 08:22:00,50.2,38.5,29.81,North,-999,-999.0,-999.0,64,-99.99,,,-99.99,meteohub,2013-05-13 12:22:00,
2013-05-13 08:27:00,50.5,38.8,29.81,North,-999,-999.0,-999.0,64,-99.99,,,-99.99,meteohub,2013-05-13 12:27:00,
2013-05-13 08:32:00,50.9,38.3,29.81,North,-999,-999.0,-999.0,62,-99.99,,,-99.99,meteohub,2013-05-13 12:32:00,
2013-05-13 08:37:00,51.3,38.7,29.81,North,-999,-999.0,-999.0,62,-99.99,,,-99.99,meteohub,2013-05-13 12:37:00,
2013-05-13 08:42:00,51.6,38.7,29.81,North,-999,-999.0,-999.0,61,-99.99,,,-99.99,meteohub,2013-05-13 12:42:00,
2013-05-13 08:47:00,52.2,38.7,29.81,North,-999,-999.0,-999.0,60,-99.99,,,-99.99,meteohub,2013-05-13 12:47:00,
2013-05-13 08:52:00,52.3,38.5,29.81,North,-999,-999.0,-999.0,59,-99.99,,,-99.99,meteohub,2013-05-13 12:52:00,
2013-05-13 08:57:00,52.9,38.5,29.81,North,-999,-999.0,-999.0,58,-99.99,,,-99.99,meteohub,2013-05-13 12:57:00,
2013-05-13 09:02:00,53.6,38.8,29.81,North,-999,-999.0,-999.0,57,-99.99,,,-99.99,meteohub,2013-05-13 13:02:00,
2013-05-13 09:07:00,54.0,38.7,29.81,North,-999,-999.0,-999.0,56,-99.99,,,-99.99,meteohub,2013-05-13 13:07:00,
2013-05-13 09:12:00,54.5,38.3,29.81,North,-999,-999.0,-999.0,54,-99.99,,,-99.99,meteohub,2013-05-13 13:12:00,
2013-05-13 09:17:00,54.9,37.6,29.81,North,-999,-999.0,-999.0,52,-99.99,,,-99.99,meteohub,2013-05-13 13:17:00,
2013-05-13 09:22:00,55.6,37.8,29.81,North,-999,-999.0,-999.0,51,-99.99,,,-99.99,meteohub,2013-05-13 13:22:00,
2013-05-13 09:27:00,55.9,37.6,29.81,North,-999,-999.0,-999.0,50,-99.99,,,-99.99,meteohub,2013-05-13 13:27:00,
2013-05-13 09:32:00,56.3,36.9,29.81,North,-999,-999.0,-999.0,48,-99.99,,,-99.99,meteohub,2013-05-13 13:32:00,
2013-05-13 09:37:00,56.7,36.7,29.81,North,-999,-999.0,-999.0,47,-99.99,,,-99.99,meteohub,2013-05-13 13:37:00,
2013-05-13 09:42:00,56.7,36.7,29.81,North,-999,-999.0,-999.0,47,-99.99,,,-99.99,meteohub,2013-05-13 13:42:00,
2013-05-13 09:47:00,56.8,36.3,29.81,North,-999,-999.0,-999.0,46,-99.99,,,-99.99,meteohub,2013-05-13 13:47:00,
2013-05-13 09:52:00,57.2,36.7,29.81,North,-999,-999.0,-999.0,46,-99.99,,,-99.99,meteohub,2013-05-13 13:52:00,
2013-05-13 09:57:00,57.6,35.8,29.81,North,-999,-999.0,-999.0,44,-99.99,,,-99.99,meteohub,2013-05-13 13:57:00,
2013-05-13 10:02:00,57.9,35.6,29.81,North,-999,-999.0,-999.0,43,-99.99,,,-99.99,meteohub,2013-05-13 14:02:00,
2013-05-13 10:07:00,58.5,36.7,29.81,North,-999,-999.0,-999.0,44,-99.99,,,-99.99,meteohub,2013-05-13 14:07:00,
2013-05-13 10:12:00,58.5,34.9,29.81,North,-999,-999.0,-999.0,41,-99.99,,,-99.99,meteohub,2013-05-13 14:12:00,
2013-05-13 10:17:00,58.5,34.9,29.81,North,-999,-999.0,-999.0,41,-99.99,,,-99.99,meteohub,2013-05-13 14:17:00,
2013-05-13 10:22:00,58.6,35.1,29.81,North,-999,-999.0,-999.0,41,-99.99,,,-99.99,meteohub,2013-05-13 14:22:00,
2013-05-13 10:27:00,58.8,34.5,29.81,North,-999,-999.0,-999.0,40,-99.99,,,-99.99,meteohub,2013-05-13 14:27:00,
2013-05-13 10:32:00,59.0,34.2,29.81,North,-999,-999.0,-999.0,39,-99.99,,,-99.99,meteohub,2013-05-13 14:32:00,
2013-05-13 10:37:00,59.0,33.4,29.81,North,-999,-999.0,-999.0,38,-99.99,,,-99.99,meteohub,2013-05-13 14:37:00,
2013-05-13 10:42:00,59.2,33.6,29.81,North,-999,-999.0,-999.0,38,-99.99,,,-99.99,meteohub,2013-05-13 14:42:00,
2013-05-13 10:47:00,59.5,34.0,29.81,North,-999,-999.0,-999.0,38,-99.99,,,-99.99,meteohub,2013-05-13 14:47:00,
2013-05-13 10:52:00,59.7,34.2,29.81,North,-999,-999.0,-999.0,38,-99.99,,,-99.99,meteohub,2013-05-13 14:52:00,
2013-05-13 10:57:00,60.3,34.5,29.81,North,-999,-999.0,-999.0,38,-99.99,,,-99.99,meteohub,2013-05-13 14:57:00,
2013-05-13 11:02:00,60.4,33.4,29.81,North,-999,-999.0,-999.0,36,-99.99,,,-99.99,meteohub,2013-05-13 15:02:00,
2013-05-13 11:07:00,60.3,33.3,29.81,North,-999,-999.0,-999.0,36,-99.99,,,-99.99,meteohub,2013-05-13 15:07:00,
2013-05-13 11:12:00,60.8,34.3,29.81,North,-999,-999.0,-999.0,37,-99.99,,,-99.99,meteohub,2013-05-13 15:12:00,
2013-05-13 11:17:00,61.3,34.9,29.81,North,-999,-999.0,-999.0,37,-99.99,,,-99.99,meteohub,2013-05-13 15:17:00,
2013-05-13 11:22:00,61.5,35.1,29.81,North,-999,-999.0,-999.0,37,-99.99,,,-99.99,meteohub,2013-05-13 15:22:00,
2013-05-13 11:27:00,61.9,35.4,29.81,North,-999,-999.0,-999.0,37,-99.99,,,-99.99,meteohub,2013-05-13 15:27:00,
2013-05-13 11:32:00,62.2,35.1,29.81,North,-999,-999.0,-999.0,36,-99.99,,,-99.99,meteohub,2013-05-13 15:32:00,
2013-05-13 11:37:00,62.8,34.7,29.81,North,-999,-999.0,-999.0,35,-99.99,,,-99.99,meteohub,2013-05-13 15:37:00,
2013-05-13 11:42:00,63.7,35.6,29.81,North,-999,-999.0,-999.0,35,-99.99,,,-99.99,meteohub,2013-05-13 15:42:00,
2013-05-13 11:47:00,64.8,36.5,29.81,North,-999,-999.0,-999.0,35,-99.99,,,-99.99,meteohub,2013-05-13 15:47:00,
2013-05-13 11:53:00,64.9,36.0,29.81,North,-999,-999.0,-999.0,34,-99.99,,,-99.99,meteohub,2013-05-13 15:53:00,
2013-05-13 11:58:00,65.8,36.7,29.81,North,-999,-999.0,-999.0,34,-99.99,,,-99.99,meteohub,2013-05-13 15:58:00,
2013-05-13 12:03:00,66.0,36.9,29.81,North,-999,-999.0,-999.0,34,-99.99,,,-99.99,meteohub,2013-05-13 16:03:00,
2013-05-13 12:08:00,66.7,37.6,29.81,North,-999,-999.0,-999.0,34,-99.99,,,-99.99,meteohub,2013-05-13 16:08:00,
2013-05-13 12:13:00,67.3,37.2,29.81,North,-999,-999.0,-999.0,33,-99.99,,,-99.99,meteohub,2013-05-13 16:13:00,
2013-05-13 12:18:00,67.6,37.6,29.81,North,-999,-999.0,-999.0,33,-99.99,,,-99.99,meteohub,2013-05-13 16:18:00,
2013-05-13 12:23:00,67.5,37.4,29.81,North,-999,-999.0,-999.0,33,-99.99,,,-99.99,meteohub,2013-05-13 16:23:00,
2013-05-13 12:28:00,67.8,37.8,29.81,North,-999,-999.0,-999.0,33,-99.99,,,-99.99,meteohub,2013-05-13 16:28:00,
2013-05-13 12:34:00,67.3,35.6,29.78,North,-999,-999.0,-999.0,31,-99.99,,,-99.99,meteohub,2013-05-13 16:34:00,
2013-05-13 12:39:00,67.6,36.7,29.78,North,-999,-999.0,-999.0,32,-99.99,,,-99.99,meteohub,2013-05-13 16:39:00,
2013-05-13 12:44:00,68.0,37.0,29.78,North,-999,-999.0,-999.0,32,-99.99,,,-99.99,meteohub,2013-05-13 16:44:00,
2013-05-13 12:49:00,67.8,36.9,29.81,North,-999,-999.0,-999.0,32,-99.99,,,-99.99,meteohub,2013-05-13 16:49:00,
2013-05-13 12:54:00,68.0,36.3,29.81,North,-999,-999.0,-999.0,31,-99.99,,,-99.99,meteohub,2013-05-13 16:54:00,
2013-05-13 12:59:00,68.5,36.7,29.81,North,-999,-999.0,-999.0,31,-99.99,,,-99.99,meteohub,2013-05-13 16:59:00,
2013-05-13 13:04:00,68.2,35.6,29.78,North,-999,-999.0,-999.0,30,-99.99,,,-99.99,meteohub,2013-05-13 17:04:00,
2013-05-13 13:09:00,68.5,36.0,29.78,North,-999,-999.0,-999.0,30,-99.99,,,-99.99,meteohub,2013-05-13 17:09:00,
2013-05-13 13:15:00,68.7,36.9,29.78,North,-999,-999.0,-999.0,31,-99.99,,,-99.99,meteohub,2013-05-13 17:15:00,
2013-05-13 13:20:00,69.1,37.2,29.78,North,-999,-999.0,-999.0,31,-99.99,,,-99.99,meteohub,2013-05-13 17:20:00,
2013-05-13 13:25:00,69.1,36.3,29.78,North,-999,-999.0,-999.0,30,-99.99,,,-99.99,meteohub,2013-05-13 17:25:00,
2013-05-13 13:30:00,68.5,36.0,29.78,North,-999,-999.0,-999.0,30,-99.99,,,-99.99,meteohub,2013-05-13 17:30:00,
2013-05-13 13:35:00,68.9,37.0,29.78,North,-999,-999.0,-999.0,31,-99.99,,,-99.99,meteohub,2013-05-13 17:35:00,
2013-05-13 13:40:00,68.7,36.1,29.78,North,-999,-999.0,-999.0,30,-99.99,,,-99.99,meteohub,2013-05-13 17:40:00,
2013-05-13 13:45:00,69.3,36.5,29.78,North,-999,-999.0,-999.0,30,-99.99,,,-99.99,meteohub,2013-05-13 17:45:00,
2013-05-13 13:50:00,67.6,33.4,29.78,North,-999,-999.0,-999.0,28,-99.99,,,-99.99,meteohub,2013-05-13 17:50:00,
2013-05-13 13:55:00,67.5,35.1,29.78,North,-999,-999.0,-999.0,30,-99.99,,,-99.99,meteohub,2013-05-13 17:55:00,
2013-05-13 14:01:00,68.4,35.8,29.78,North,-999,-999.0,-999.0,30,-99.99,,,-99.99,meteohub,2013-05-13 18:01:00,
2013-05-13 14:06:00,68.4,35.8,29.78,North,-999,-999.0,-999.0,30,-99.99,,,-99.99,meteohub,2013-05-13 18:06:00,
2013-05-13 14:11:00,68.4,34.9,29.78,North,-999,-999.0,-999.0,29,-99.99,,,-99.99,meteohub,2013-05-13 18:11:00,
2013-05-13 14:16:00,68.9,37.0,29.78,North,-999,-999.0,-999.0,31,-99.99,,,-99.99,meteohub,2013-05-13 18:16:00,
2013-05-13 14:21:00,69.1,36.3,29.78,North,-999,-999.0,-999.0,30,-99.99,,,-99.99,meteohub,2013-05-13 18:21:00,
2013-05-13 14:26:00,69.1,35.6,29.78,North,-999,-999.0,-999.0,29,-99.99,,,-99.99,meteohub,2013-05-13 18:26:00,
2013-05-13 14:31:00,69.3,36.5,29.78,North,-999,-999.0,-999.0,30,-99.99,,,-99.99,meteohub,2013-05-13 18:31:00,
2013-05-13 14:36:00,68.9,34.5,29.75,North,-999,-999.0,-999.0,28,-99.99,,,-99.99,meteohub,2013-05-13 18:36:00,
2013-05-13 14:41:00,68.4,34.9,29.75,North,-999,-999.0,-999.0,29,-99.99,,,-99.99,meteohub,2013-05-13 18:41:00,
2013-05-13 14:46:00,68.2,34.7,29.75,North,-999,-999.0,-999.0,29,-99.99,,,-99.99,meteohub,2013-05-13 18:46:00,
2013-05-13 14:52:00,68.7,36.1,29.75,North,-999,-999.0,-999.0,30,-99.99,,,-99.99,meteohub,2013-05-13 18:52:00,
2013-05-13 14:57:00,68.7,35.2,29.75,North,-999,-999.0,-999.0,29,-99.99,,,-99.99,meteohub,2013-05-13 18:57:00,
2013-05-13 15:02:00,68.7,35.2,29.75,North,-999,-999.0,-999.0,29,-99.99,,,-99.99,meteohub,2013-05-13 19:02:00,
2013-05-13 15:07:00,68.2,34.7,29.78,North,-999,-999.0,-999.0,29,-99.99,,,-99.99,meteohub,2013-05-13 19:07:00,
2013-05-13 15:12:00,68.0,34.5,29.78,North,-999,-999.0,-999.0,29,-99.99,,,-99.99,meteohub,2013-05-13 19:12:00,
2013-05-13 15:17:00,68.2,33.8,29.78,North,-999,-999.0,-999.0,28,-99.99,,,-99.99,meteohub,2013-05-13 19:17:00,
2013-05-13 15:22:00,67.3,34.0,29.75,North,-999,-999.0,-999.0,29,-99.99,,,-99.99,meteohub,2013-05-13 19:22:00,
2013-05-13 15:27:00,66.2,32.2,29.75,North,-999,-999.0,-999.0,28,-99.99,,,-99.99,meteohub,2013-05-13 19:27:00,
2013-05-13 15:32:00,67.1,33.8,29.75,North,-999,-999.0,-999.0,29,-99.99,,,-99.99,meteohub,2013-05-13 19:32:00,
2013-05-13 15:37:00,67.8,35.2,29.75,North,-999,-999.0,-999.0,30,-99.99,,,-99.99,meteohub,2013-05-13 19:37:00,
2013-05-13 15:42:00,67.8,34.5,29.75,North,-999,-999.0,-999.0,29,-99.99,,,-99.99,meteohub,2013-05-13 19:42:00,
2013-05-13 15:47:00,66.9,30.9,29.75,North,-999,-999.0,-999.0,26,-99.99,,,-99.99,meteohub,2013-05-13 19:47:00,
2013-05-13 15:52:00,67.3,33.1,29.75,North,-999,-999.0,-999.0,28,-99.99,,,-99.99,meteohub,2013-05-13 19:52:00,
2013-05-13 15:58:00,66.7,32.7,29.75,North,-999,-999.0,-999.0,28,-99.99,,,-99.99,meteohub,2013-05-13 19:58:00,
2013-05-13 16:03:00,66.4,33.3,29.75,North,-999,-999.0,-999.0,29,-99.99,,,-99.99,meteohub,2013-05-13 20:03:00,
2013-05-13 16:08:00,66.4,33.3,29.75,North,-999,-999.0,-999.0,29,-99.99,,,-99.99,meteohub,2013-05-13 20:08:00,
2013-05-13 16:13:00,66.6,33.4,29.75,North,-999,-999.0,-999.0,29,-99.99,,,-99.99,meteohub,2013-05-13 20:13:00,
2013-05-13 16:18:00,66.6,33.4,29.75,North,-999,-999.0,-999.0,29,-99.99,,,-99.99,meteohub,2013-05-13 20:18:00,
2013-05-13 16:23:00,66.6,32.5,29.75,North,-999,-999.0,-999.0,28,-99.99,,,-99.99,meteohub,2013-05-13 20:23:00,
2013-05-13 16:28:00,66.6,32.5,29.75,North,-999,-999.0,-999.0,28,-99.99,,,-99.99,meteohub,2013-05-13 20:28:00,
2013-05-13 16:33:00,66.7,33.4,29.75,North,-999,-999.0,-999.0,29,-99.99,,,-99.99,meteohub,2013-05-13 20:33:00,
2013-05-13 16:38:00,66.9,33.6,29.75,North,-999,-999.0,-999.0,29,-99.99,,,-99.99,meteohub,2013-05-13 20:38:00,
2013-05-13 16:44:00,66.9,33.6,29.75,North,-999,-999.0,-999.0,29,-99.99,,,-99.99,meteohub,2013-05-13 20:44:00,
2013-05-13 16:49:00,66.7,33.4,29.75,North,-999,-999.0,-999.0,29,-99.99,,,-99.99,meteohub,2013-05-13 20:49:00,
2013-05-13 16:54:00,66.4,32.4,29.75,North,-999,-999.0,-999.0,28,-99.99,,,-99.99,meteohub,2013-05-13 20:54:00,
2013-05-13 16:59:00,66.6,33.4,29.75,North,-999,-999.0,-999.0,29,-99.99,,,-99.99,meteohub,2013-05-13 20:59:00,
2013-05-13 17:04:00,66.4,33.3,29.72,North,-999,-999.0,-999.0,29,-99.99,,,-99.99,meteohub,2013-05-13 21:04:00,
2013-05-13 17:09:00,65.5,32.4,29.72,North,-999,-999.0,-999.0,29,-99.99,,,-99.99,meteohub,2013-05-13 21:09:00,
2013-05-13 17:14:00,65.1,32.9,29.72,North,-999,-999.0,-999.0,30,-99.99,,,-99.99,meteohub,2013-05-13 21:14:00,
2013-05-13 17:19:00,65.5,33.3,29.72,North,-999,-999.0,-999.0,30,-99.99,,,-99.99,meteohub,2013-05-13 21:19:00,
2013-05-13 17:24:00,65.3,33.1,29.72,North,-999,-999.0,-999.0,30,-99.99,,,-99.99,meteohub,2013-05-13 21:24:00,
2013-05-13 17:29:00,64.9,32.7,29.72,North,-999,-999.0,-999.0,30,-99.99,,,-99.99,meteohub,2013-05-13 21:29:00,
2013-05-13 17:35:00,65.1,32.9,29.72,North,-999,-999.0,-999.0,30,-99.99,,,-99.99,meteohub,2013-05-13 21:35:00,
2013-05-13 17:40:00,64.9,32.7,29.72,North,-999,-999.0,-999.0,30,-99.99,,,-99.99,meteohub,2013-05-13 21:40:00,
2013-05-13 17:45:00,64.6,32.5,29.72,North,-999,-999.0,-999.0,30,-99.99,,,-99.99,meteohub,2013-05-13 21:45:00,
2013-05-13 17:50:00,64.6,32.5,29.72,North,-999,-999.0,-999.0,30,-99.99,,,-99.99,meteohub,2013-05-13 21:50:00,
2013-05-13 17:55:00,64.8,32.7,29.72,North,-999,-999.0,-999.0,30,-99.99,,,-99.99,meteohub,2013-05-13 21:55:00,
2013-05-13 18:00:00,64.6,32.5,29.72,North,-999,-999.0,-999.0,30,-99.99,,,-99.99,meteohub,2013-05-13 22:00:00,
2013-05-13 18:05:00,64.4,32.4,29.72,North,-999,-999.0,-999.0,30,-99.99,,,-99.99,meteohub,2013-05-13 22:05:00,
2013-05-13 18:10:00,64.6,32.5,29.72,North,-999,-999.0,-999.0,30,-99.99,,,-99.99,meteohub,2013-05-13 22:10:00,
2013-05-13 18:15:00,64.6,32.5,29.72,North,-999,-999.0,-999.0,30,-99.99,,,-99.99,meteohub,2013-05-13 22:15:00,
2013-05-13 18:20:00,64.4,32.4,29.72,North,-999,-999.0,-999.0,30,-99.99,,,-99.99,meteohub,2013-05-13 22:20:00,
2013-05-13 18:26:00,64.4,32.4,29.72,North,-999,-999.0,-999.0,30,-99.99,,,-99.99,meteohub,2013-05-13 22:26:00,
2013-05-13 18:31:00,64.6,32.5,29.72,North,-999,-999.0,-999.0,30,-99.99,,,-99.99,meteohub,2013-05-13 22:31:00,
2013-05-13 18:36:00,64.6,32.5,29.72,North,-999,-999.0,-999.0,30,-99.99,,,-99.99,meteohub,2013-05-13 22:36:00,
2013-05-13 18:41:00,64.6,33.3,29.72,North,-999,-999.0,-999.0,31,-99.99,,,-99.99,meteohub,2013-05-13 22:41:00,
2013-05-13 18:46:00,64.6,33.3,29.72,North,-999,-999.0,-999.0,31,-99.99,,,-99.99,meteohub,2013-05-13 22:46:00,
2013-05-13 18:51:00,64.4,32.4,29.72,North,-999,-999.0,-999.0,30,-99.99,,,-99.99,meteohub,2013-05-13 22:51:00,
2013-05-13 18:56:00,64.2,33.1,29.72,North,-999,-999.0,-999.0,31,-99.99,,,-99.99,meteohub,2013-05-13 22:56:00,
2013-05-13 19:01:00,63.9,33.4,29.72,North,-999,-999.0,-999.0,32,-99.99,,,-99.99,meteohub,2013-05-13 23:01:00,
2013-05-13 19:07:00,63.7,33.3,29.72,North,-999,-999.0,-999.0,32,-99.99,,,-99.99,meteohub,2013-05-13 23:07:00,
2013-05-13 19:12:00,63.5,33.1,29.72,North,-999,-999.0,-999.0,32,-99.99,,,-99.99,meteohub,2013-05-13 23:12:00,
2013-05-13 19:17:00,63.5,33.1,29.72,North,-999,-999.0,-999.0,32,-99.99,,,-99.99,meteohub,2013-05-13 23:17:00,
2013-05-13 19:22:00,63.3,33.1,29.72,North,-999,-999.0,-999.0,32,-99.99,,,-99.99,meteohub,2013-05-13 23:22:00,
2013-05-13 19:27:00,63.3,33.1,29.72,North,-999,-999.0,-999.0,32,-99.99,,,-99.99,meteohub,2013-05-13 23:27:00,
2013-05-13 19:32:00,63.0,33.4,29.72,North,-999,-999.0,-999.0,33,-99.99,,,-99.99,meteohub,2013-05-13 23:32:00,
2013-05-13 19:37:00,62.6,33.1,29.72,North,-999,-999.0,-999.0,33,-99.99,,,-99.99,meteohub,2013-05-13 23:37:00,
2013-05-13 19:42:00,62.2,33.6,29.72,North,-999,-999.0,-999.0,34,-99.99,,,-99.99,meteohub,2013-05-13 23:42:00,
2013-05-13 19:47:00,61.9,32.5,29.72,North,-999,-999.0,-999.0,33,-99.99,,,-99.99,meteohub,2013-05-13 23:47:00,
2013-05-13 19:52:00,61.5,32.9,29.75,North,-999,-999.0,-999.0,34,-99.99,,,-99.99,meteohub,2013-05-13 23:52:00,
2013-05-13 19:57:00,61.2,32.5,29.75,North,-999,-999.0,-999.0,34,-99.99,,,-99.99,meteohub,2013-05-13 23:57:00,
2013-05-13 20:02:00,60.8,32.4,29.75,North,-999,-999.0,-999.0,34,-99.99,,,-99.99,meteohub,2013-05-14 00:02:00,
2013-05-13 20:07:00,60.4,32.7,29.75,North,-999,-999.0,-999.0,35,-99.99,,,-99.99,meteohub,2013-05-14 00:07:00,
2013-05-13 20:12:00,60.3,32.5,29.75,North,-999,-999.0,-999.0,35,-99.99,,,-99.99,meteohub,2013-05-14 00:12:00,
2013-05-13 20:17:00,60.1,33.1,29.75,North,-999,-999.0,-999.0,36,-99.99,,,-99.99,meteohub,2013-05-14 00:17:00,
2013-05-13 20:22:00,59.7,32.7,29.75,North,-999,-999.0,-999.0,36,-99.99,,,-99.99,meteohub,2013-05-14 00:22:00,
2013-05-13 20:27:00,59.4,32.4,29.75,North,-999,-999.0,-999.0,36,-99.99,,,-99.99,meteohub,2013-05-14 00:27:00,
2013-05-13 20:32:00,59.4,33.1,29.75,North,-999,-999.0,-999.0,37,-99.99,,,-99.99,meteohub,2013-05-14 00:32:00,
2013-05-13 20:37:00,59.2,33.6,29.75,North,-999,-999.0,-999.0,38,-99.99,,,-99.99,meteohub,2013-05-14 00:37:00,
2013-05-13 20:42:00,58.8,33.3,29.75,North,-999,-999.0,-999.0,38,-99.99,,,-99.99,meteohub,2013-05-14 00:42:00,
2013-05-13 20:47:00,58.6,33.8,29.75,North,-999,-999.0,-999.0,39,-99.99,,,-99.99,meteohub,2013-05-14 00:47:00,
2013-05-13 20:52:00,58.5,34.3,29.75,North,-999,-999.0,-999.0,40,-99.99,,,-99.99,meteohub,2013-05-14 00:52:00,
2013-05-13 20:57:00,58.3,34.2,29.75,North,-999,-999.0,-999.0,40,-99.99,,,-99.99,meteohub,2013-05-14 00:57:00,
2013-05-13 21:02:00,58.1,34.5,29.75,North,-999,-999.0,-999.0,41,-99.99,,,-99.99,meteohub,2013-05-14 01:02:00,
2013-05-13 21:07:00,57.9,34.3,29.78,North,-999,-999.0,-999.0,41,-99.99,,,-99.99,meteohub,2013-05-14 01:07:00,
2013-05-13 21:12:00,57.6,34.7,29.78,North,-999,-999.0,-999.0,42,-99.99,,,-99.99,meteohub,2013-05-14 01:12:00,
2013-05-13 21:17:00,57.4,34.5,29.78,North,-999,-999.0,-999.0,42,-99.99,,,-99.99,meteohub,2013-05-14 01:17:00,
2013-05-13 21:22:00,57.4,34.5,29.78,North,-999,-999.0,-999.0,42,-99.99,,,-99.99,meteohub,2013-05-14 01:22:00,
2013-05-13 21:27:00,57.0,34.7,29.78,North,-999,-999.0,-999.0,43,-99.99,,,-99.99,meteohub,2013-05-14 01:27:00,
2013-05-13 21:32:00,56.7,35.1,29.78,North,-999,-999.0,-999.0,44,-99.99,,,-99.99,meteohub,2013-05-14 01:32:00,
2013-05-13 21:37:00,56.5,34.9,29.78,North,-999,-999.0,-999.0,44,-99.99,,,-99.99,meteohub,2013-05-14 01:37:00,
2013-05-13 21:42:00,56.1,35.1,29.78,North,-999,-999.0,-999.0,45,-99.99,,,-99.99,meteohub,2013-05-14 01:42:00,
2013-05-13 21:47:00,55.8,34.7,29.78,North,-999,-999.0,-999.0,45,-99.99,,,-99.99,meteohub,2013-05-14 01:47:00,
2013-05-13 21:52:00,55.6,34.7,29.81,North,-999,-999.0,-999.0,45,-99.99,,,-99.99,meteohub,2013-05-14 01:52:00,
2013-05-13 21:57:00,55.2,34.9,29.81,North,-999,-999.0,-999.0,46,-99.99,,,-99.99,meteohub,2013-05-14 01:57:00,
2013-05-13 22:02:00,54.9,35.1,29.81,North,-999,-999.0,-999.0,47,-99.99,,,-99.99,meteohub,2013-05-14 02:02:00,
2013-05-13 22:07:00,54.7,34.9,29.81,North,-999,-999.0,-999.0,47,-99.99,,,-99.99,meteohub,2013-05-14 02:07:00,
2013-05-13 22:12:00,54.3,35.1,29.81,North,-999,-999.0,-999.0,48,-99.99,,,-99.99,meteohub,2013-05-14 02:12:00,
2013-05-13 22:17:00,54.1,34.9,29.81,North,-999,-999.0,-999.0,48,-99.99,,,-99.99,meteohub,2013-05-14 02:17:00,
2013-05-13 22:22:00,53.8,35.1,29.81,North,-999,-999.0,-999.0,49,-99.99,,,-99.99,meteohub,2013-05-14 02:22:00,
2013-05-13 22:27:00,53.2,35.1,29.81,North,-999,-999.0,-999.0,50,-99.99,,,-99.99,meteohub,2013-05-14 02:27:00,
2013-05-13 22:32:00,53.1,34.9,29.81,North,-999,-999.0,-999.0,50,-99.99,,,-99.99,meteohub,2013-05-14 02:32:00,
2013-05-13 22:37:00,52.9,35.2,29.81,North,-999,-999.0,-999.0,51,-99.99,,,-99.99,meteohub,2013-05-14 02:37:00,
2013-05-13 22:42:00,52.5,35.4,29.81,North,-999,-999.0,-999.0,52,-99.99,,,-99.99,meteohub,2013-05-14 02:42:00,
2013-05-13 22:47:00,52.3,34.7,29.81,North,-999,-999.0,-999.0,51,-99.99,,,-99.99,meteohub,2013-05-14 02:47:00,
2013-05-13 22:52:00,52.0,34.9,29.81,North,-999,-999.0,-999.0,52,-99.99,,,-99.99,meteohub,2013-05-14 02:52:00,
2013-05-13 22:57:00,51.8,35.2,29.81,North,-999,-999.0,-999.0,53,-99.99,,,-99.99,meteohub,2013-05-14 02:57:00,
2013-05-13 23:02:00,51.6,35.6,29.81,North,-999,-999.0,-999.0,54,-99.99,,,-99.99,meteohub,2013-05-14 03:02:00,
2013-05-13 23:07:00,51.4,35.4,29.84,North,-999,-999.0,-999.0,54,-99.99,,,-99.99,meteohub,2013-05-14 03:07:00,
2013-05-13 23:12:00,51.3,35.6,29.84,North,-999,-999.0,-999.0,55,-99.99,,,-99.99,meteohub,2013-05-14 03:12:00,
2013-05-13 23:17:00,51.1,35.4,29.84,North,-999,-999.0,-999.0,55,-99.99,,,-99.99,meteohub,2013-05-14 03:17:00,
2013-05-13 23:22:00,50.9,35.8,29.84,North,-999,-999.0,-999.0,56,-99.99,,,-99.99,meteohub,2013-05-14 03:22:00,
2013-05-13 23:27:00,50.7,35.6,29.84,North,-999,-999.0,-999.0,56,-99.99,,,-99.99,meteohub,2013-05-14 03:27:00,
2013-05-13 23:32:00,50.4,35.2,29.84,North,-999,-999.0,-999.0,56,-99.99,,,-99.99,meteohub,2013-05-14 03:32:00,
2013-05-13 23:37:00,50.2,35.6,29.84,North,-999,-999.0,-999.0,57,-99.99,,,-99.99,meteohub,2013-05-14 03:37:00,
2013-05-13 23:42:00,50.2,35.6,29.84,North,-999,-999.0,-999.0,57,-99.99,,,-99.99,meteohub,2013-05-14 03:42:00,
2013-05-13 23:47:00,50.2,35.6,29.84,North,-999,-999.0,-999.0,57,-99.99,,,-99.99,meteohub,2013-05-14 03:47:00,
2013-05-13 23:52:00,50.2,35.6,29.84,North,-999,-999.0,-999.0,57,-99.99,,,-99.99,meteohub,2013-05-14 03:52:00,
2013-05-13 23:57:00,50.2,35.6,29.84,North,-999,-999.0,-999.0,57,-99.99,,,-99.99,meteohub,2013-05-14 03:57:00,